Location: Kumla
(59.1265°N, 15.1401°E)
Time: 23:40:57
(UTC+01:00)

Vanguard 1 Rocket - Pass Details

Date: 11 December 2023
Orbit: 653 x 4219 km, 34.3° (Epoch: 01 March)

Event Time Altitude Azimuth Distance (km) Brightness Sun altitude
Exits shadow 03:35:45 15° 202° (SSW) 6,716 11.4 -36.9°
Maximum altitude 03:48:41 26° 165° (SSE) 5,181 11.1 -35.3°
Drops below altitude 10° 04:00:59 10° 118° (ESE) 5,242 11.8 -33.8°
Sets 04:05:11 0° 106° (ESE) 5,756 12.3 -33.2°
